Location: Albany
(35.0170°S, 117.8920°E)
Time: 00:53:56
(UTC+08:00)

Explorer 7 - Pass Details

Date: 31 January 2021
Orbit: 484 x 677 km, 50.3° (Epoch: 01 March)

Event Time Altitude Azimuth Distance (km) Brightness Sun altitude
Rises 15:17:24 0° 263° (W) 3,043 11.2 47.2°
Reaches altitude 10° 15:20:25 10° 245° (WSW) 2,130 10.5 46.6°
Maximum altitude 15:23:56 19° 200° (SSW) 1,602 9.5 45.9°
Drops below altitude 10° 15:27:24 10° 154° (SSE) 2,103 9.6 45.2°
Sets 15:30:22 0° 136° (SE) 2,991 10.2 44.6°
